Regional Weather Roundup
Issued by NWS

Home | Current Version | Previous Version | Graphics & Text | Print | Product List | Glossary On
Versions: 1 2 3 4 5 6 7 8 9 10 11 12 13 14 15 16 17 18 19 20 21 22 23 24 25 26 27 28 29 30 31 32 33 34 35 36 37 38 39 40 41 42 43 44 45 46 47 48 49 50
000
ASUS43 KLMK 201702
RWRKY
KENTUCKY REGIONAL WEATHER ROUNDUP
NATIONAL WEATHER SERVICE LOUISVILLE KY
1200 PM EST THU NOV 20 2014

NOTE "FAIR" INDICATES FEW OR NO CLOUDS BELOW 12,000 FEET
WITH NO SIGNIFICANT WEATHER AND/OR OBSTRUCTIONS TO VISIBILITY.

KYZ001>023-026-027-061>063-070>075-201800-
WESTERN AND SOUTH CENTRAL KENTUCKY

CITY           SKY/WX    TMP DP  RH WIND       PRES   REMARKS
PADUCAH        SUNNY     36  20  52 VRB6      30.28F WCI  31
HENDERSON      MOSUNNY   30  18  59 NW7       30.29F WCI  23
OWENSBORO      PTSUNNY   33  20  59 NW12      30.29S WCI  24
HOPKINSVILLE   NOT AVBL
BOWLING GREEN  SUNNY     38  18  44 W10       30.27S WCI  31
GLASGOW        NOT AVBL
$$

KYZ024-025-028>034-038-045-046-053-201800-
NORTH CENTRAL KENTUCKY

CITY           SKY/WX    TMP DP  RH WIND       PRES   REMARKS
LOUISVILLE/SDF PTSUNNY   32  16  51 W15       30.25S WCI  22
LOUISVILLE/LOU MOSUNNY   31  15  52 W13G18    30.25S WCI  21
FORT KNOX      CLOUDY    30  17  60 W10       30.23S WCI  21
$$

KYZ035>037-039>044-047>052-055>060-089>105-201800-
NORTHEAST KENTUCKY

CITY           SKY/WX    TMP DP  RH WIND       PRES   REMARKS
LEXINGTON      PTSUNNY   29  16  58 W14       30.20F WCI  18
COVINGTON      MOSUNNY   29  13  51 SW15      30.17S WCI  18
FRANKFORT      SUNNY     30  13  49 W10G18    30.21S WCI  21
$$

KYZ054-064>069-076>088-106>120-201800-
SOUTHEAST KENTUCKY

CITY           SKY/WX    TMP DP  RH WIND       PRES   REMARKS
JACKSON        SUNNY     40  19  43 W10G20    30.13F WCI  33
LONDON         SUNNY     41  22  46 W14       30.17F
SOMERSET       SUNNY     36  18  48 W13       30.22S WCI  27
MIDDLESBORO    CLOUDY    45  28  52 W6        30.17S
MONTICELLO     SUNNY     42  21  43 W9        30.24S
$$



USA.gov is the U.S. government's official web portal to all federal, state and local government web resources and services.